Fountain Dale, PA

2:12 AM EDT on October 20, 2017 (GMT -0400)
Fountain Dale

Weather History for KRYT - November, 2013

Change the Weather History Date:

Monday, November 11, 2013

  Actual Average (KHGR) Record (KHGR)
Temperature  
Mean Temperature 45 °F -  
Max Temperature 53 °F 51 °F 68 °F (2006)
Min Temperature 37 °F 35 °F 29 °F (2007)
Degree Days  
Heating Degree Days 20    
Moisture  
Dew Point 26 °F    
Average Humidity 48    
Maximum Humidity 65    
Minimum Humidity 34    
Precipitation  
Precipitation 0.00 in - - ()
Sea Level Pressure  
Sea Level Pressure 30.15 in    
Wind  
Wind Speed 4 mph (SW)    
Max Wind Speed 15 mph    
Max Gust Speed 26 mph    
Visibility 10 miles    
Events      
Averages and records for this station are not official NWS values.
T = Trace of Precipitation, MM = Missing Value Source: NWS Daily Summary

Daily Weather History Graph

Daily Weather History Graph

Search for Another Location

Airport or City:

Trip Planner

Search our weather history database for the weather conditions in past years. The results will help you decide how hot, cold, wet, or windy it might be!

Date:

Astronomy

Nov. 11, 2013 Rise Set
Actual Time 6:49 AM EST 4:57 PM EST
Civil Twilight 6:21 AM EST 5:25 PM EST
Nautical Twilight 5:48 AM EST 5:58 PM EST
Astronomical Twilight 5:17 AM EST 6:29 PM EST
Moon 1:36 PM EST (11/11) 12:33 AM EST (11/11)
Length of Visible Light 11h 04m
Length of Day
10h 07m
Waxing Gibbous, 66% of the Moon is Illuminated
Nov 11
Waxing Gibbous
Nov 17
Full
Nov 25
Last Quarter
Dec 2
New
Dec 9
First Quarter

Hourly Weather History & Observations

Time (EST) Temp. Windchill Dew Point Humidity Pressure Visibility Wind Dir Wind Speed Gust Speed Precip Events Conditions
12:53 AM 41.0 °F 39.0 °F 26.1 °F 55% 30.22 in 10.0 mi Variable 3.5 mph - N/A   Clear
1:53 AM 41.0 °F - 26.1 °F 55% 30.23 in 10.0 mi Calm Calm - N/A   Clear
2:53 AM 39.9 °F - 27.0 °F 60% 30.24 in 10.0 mi Calm Calm - N/A   Clear
3:53 AM 39.0 °F - 27.0 °F 62% 30.23 in 10.0 mi Calm Calm - N/A   Clear
4:53 AM 39.0 °F - 27.0 °F 62% 30.25 in 10.0 mi Calm Calm - N/A   Clear
5:53 AM 37.9 °F - 27.0 °F 65% 30.25 in 10.0 mi Calm Calm - N/A   Clear
6:53 AM 39.0 °F 34.0 °F 27.0 °F 62% 30.26 in 10.0 mi Variable 6.9 mph - N/A   Clear
7:53 AM 39.9 °F 36.7 °F 27.0 °F 60% 30.26 in 10.0 mi South 4.6 mph - N/A   Clear
8:53 AM 43.0 °F 41.3 °F 28.0 °F 56% 30.27 in 10.0 mi Variable 3.5 mph - N/A   Mostly Cloudy
9:53 AM 42.1 °F 39.2 °F 28.0 °F 58% 30.26 in 10.0 mi SSW 4.6 mph - N/A   Scattered Clouds
10:53 AM 44.1 °F 40.8 °F 28.9 °F 55% 30.24 in 10.0 mi West 5.8 mph - N/A   Overcast
11:53 AM 46.0 °F 41.9 °F 28.9 °F 51% 30.21 in 10.0 mi SW 8.1 mph - N/A   Overcast
12:53 PM 48.0 °F - 27.0 °F 44% 30.17 in 10.0 mi West 9.2 mph - N/A   Overcast
1:53 PM 51.1 °F - 24.1 °F 35% 30.13 in 10.0 mi SW 6.9 mph - N/A   Overcast
2:53 PM 53.1 °F - 25.0 °F 34% 30.09 in 10.0 mi SW 8.1 mph - N/A   Scattered Clouds
3:53 PM 53.1 °F - 26.1 °F 35% 30.09 in 10.0 mi SW 8.1 mph - N/A   Overcast
4:53 PM 51.1 °F - 27.0 °F 39% 30.09 in 10.0 mi SW 4.6 mph - N/A   Overcast
5:53 PM 51.1 °F - 26.1 °F 38% 30.07 in 10.0 mi SSW 5.8 mph - N/A   Overcast
6:53 PM 52.0 °F - 25.0 °F 35% 30.04 in 10.0 mi SSW 11.5 mph 18.4 mph N/A   Overcast
7:53 PM 52.0 °F - 25.0 °F 35% 30.01 in 10.0 mi SSW 15.0 mph 26.5 mph N/A   Overcast
8:53 PM 51.1 °F - 25.0 °F 36% 30.01 in 10.0 mi Variable 6.9 mph - N/A   Overcast
9:53 PM 52.0 °F - 25.0 °F 35% 30.01 in 10.0 mi WSW 6.9 mph - N/A   Overcast
10:53 PM 50.0 °F - 25.0 °F 38% 30.00 in 10.0 mi Calm Calm - N/A   Overcast
11:53 PM 50.0 °F - 27.0 °F 41% 30.01 in 10.0 mi Variable 3.5 mph - N/A   Overcast